| time (UTC) | temp F | wind direction | speed MPH | gust MPH | rain 1hr in | rain 24hr in | rain mn in | humidity % | barometer mb |
| 20260506102529 | 45 | 53 | 0.0 | 3.0 | 0.04 | 1.18 | 0.28 | 95 | 1007.6 |
| 20260506102053 | 45 | 55 | 0.0 | 3.0 | 0.05 | 1.18 | 0.28 | 95 | 1007.3 |
| 20260506101550 | 45 | 9 | 0.0 | 2.0 | 0.06 | 1.18 | 0.28 | 95 | 1007.2 |
| 20260506101032 | 45 | 347 | 0.0 | 2.0 | 0.07 | 1.18 | 0.28 | 95 | 1006.8 |
| 20260506100540 | 45 | 349 | 0.0 | 6.0 | 0.07 | 1.17 | 0.27 | 95 | 1006.8 |
| 20260506100036 | 45 | 348 | 0.0 | 6.0 | 0.07 | 1.17 | 0.27 | 95 | 1007.1 |
| 20260506095547 | 45 | 51 | 1.0 | 3.0 | 0.08 | 1.17 | 0.27 | 95 | 1007.0 |
| 20260506095037 | 45 | 355 | 1.0 | 3.0 | 0.08 | 1.15 | 0.26 | 95 | 1006.6 |
| 20260506094552 | 45 | 350 | 1.0 | 4.0 | 0.08 | 1.15 | 0.26 | 95 | 1007.1 |
| 20260506094048 | 45 | 355 | 1.0 | 9.0 | 0.08 | 1.15 | 0.26 | 95 | 1007.1 |
| 20260506093550 | 45 | 351 | 3.0 | 9.0 | 0.08 | 1.14 | 0.25 | 95 | 1007.2 |
| 20260506093104 | 45 | 328 | 1.0 | 4.0 | 0.07 | 1.13 | 0.24 | 95 | 1007.5 |
| 20260506092510 | 45 | 330 | 1.0 | 5.0 | 0.08 | 1.13 | 0.24 | 95 | 1007.6 |
| 20260506092050 | 45 | 339 | 2.0 | 6.0 | 0.07 | 1.12 | 0.23 | 95 | 1007.7 |
| 20260506091559 | 45 | 328 | 1.0 | 6.0 | 0.07 | 1.12 | 0.22 | 95 | 1007.8 |
| 20260506091502 | 45 | 328 | 1.0 | 6.0 | 0.07 | 1.12 | 0.22 | 95 | 1007.8 |
| 20260506091004 | 45 | 317 | 0.0 | 6.0 | 0.06 | 1.11 | 0.21 | 94 | 1007.7 |
| 20260506090518 | 46 | 339 | 1.0 | 6.0 | 0.05 | 1.10 | 0.20 | 94 | 1007.8 |
| 20260506090058 | 46 | 350 | 1.0 | 5.0 | 0.05 | 1.11 | 0.20 | 95 | 1007.7 |
| 20260506085505 | 46 | 333 | 1.0 | 5.0 | 0.05 | 1.10 | 0.19 | 94 | 1007.7 |
| 20260506085016 | 46 | 333 | 2.0 | 5.0 | 0.04 | 1.09 | 0.18 | 95 | 1007.5 |
| 20260506084608 | 47 | 326 | 1.0 | 3.0 | 0.04 | 1.09 | 0.18 | 95 | 1007.5 |
| 20260506084507 | 47 | 319 | 1.0 | 3.0 | 0.04 | 1.09 | 0.18 | 95 | 1007.3 |
| 20260506084004 | 47 | 315 | 0.0 | 2.0 | 0.03 | 1.08 | 0.18 | 95 | 1007.2 |
| 20260506083520 | 47 | 315 | 0.0 | 2.0 | 0.04 | 1.08 | 0.17 | 95 | 1007.2 |
| 20260506083029 | 47 | 315 | 0.0 | 3.0 | 0.05 | 1.08 | 0.17 | 95 | 1007.2 |
| 20260506082534 | 47 | 315 | 1.0 | 3.0 | 0.05 | 1.07 | 0.16 | 95 | 1007.3 |
| 20260506082038 | 47 | 315 | 0.0 | 3.0 | 0.05 | 1.07 | 0.16 | 95 | 1007.4 |
| 20260506081542 | 47 | 315 | 0.0 | 3.0 | 0.05 | 1.06 | 0.15 | 95 | 1007.2 |
| 20260506081052 | 47 | 315 | 0.0 | 1.0 | 0.05 | 1.06 | 0.15 | 95 | 1007.2 |
| 20260506080503 | 47 | 315 | 0.0 | 1.0 | 0.05 | 1.06 | 0.15 | 95 | 1007.0 |
| 20260506073510 | 47 | 315 | 0.0 | 1.0 | 0.04 | 1.04 | 0.13 | 95 | 1006.9 |
| 20260506073018 | 47 | 315 | 0.0 | 1.0 | 0.03 | 1.03 | 0.12 | 95 | 1006.9 |
| 20260506072534 | 47 | 315 | 0.0 | 1.0 | 0.02 | 1.02 | 0.11 | 94 | 1007.1 |
| 20260506072100 | 47 | 315 | 0.0 | 2.0 | 0.02 | 1.02 | 0.11 | 94 | 1007.0 |
| 20260506071508 | 47 | 315 | 0.0 | 2.0 | 0.01 | 1.01 | 0.10 | 94 | 1007.1 |
| 20260506071050 | 47 | 315 | 0.0 | 2.0 | 0.01 | 1.01 | 0.10 | 94 | 1007.2 |
| 20260506070550 | 47 | 315 | 0.0 | 1.0 | 0.01 | 1.01 | 0.10 | 94 | 1007.2 |
| 20260506062503 | 47 | 315 | 0.0 | 1.0 | 0.02 | 1.01 | 0.09 | 95 | 1007.4 |
| 20260506062008 | 47 | 315 | 0.0 | 1.0 | 0.03 | 1.01 | 0.09 | 94 | 1007.2 |
| 20260506061525 | 47 | 315 | 0.0 | 1.0 | 0.03 | 1.01 | 0.09 | 94 | 1007.5 |
| 20260506061050 | 47 | 315 | 0.0 | 0.0 | 0.03 | 1.01 | 0.09 | 95 | 1007.6 |
| 20260506060601 | 47 | 315 | 0.0 | 1.0 | 0.04 | 1.01 | 0.09 | 94 | 1007.6 |
| 20260506051004 | 48 | 325 | 0.0 | 2.0 | 0.05 | 0.99 | 0.06 | 94 | 1008.4 |
| 20260506050523 | 48 | 325 | 1.0 | 2.0 | 0.05 | 0.98 | 0.05 | 94 | 1008.2 |
| 20260506045030 | 48 | 325 | 0.0 | 1.0 | 0.06 | 0.99 | 0.04 | 94 | 1008.0 |
| 20260506044540 | 48 | 325 | 0.0 | 2.0 | 0.07 | 0.99 | 0.04 | 94 | 1007.9 |
| 20260506044039 | 48 | 325 | 0.0 | 2.0 | 0.07 | 0.98 | 0.03 | 94 | 1008.1 |
| 20260506043553 | 48 | 325 | 0.0 | 0.0 | 0.07 | 0.98 | 0.03 | 94 | 1007.9 |
| 20260506043056 | 48 | 325 | 0.0 | 0.0 | 0.07 | 0.98 | 0.03 | 94 | 1007.9 |
| 20260506042506 | 48 | 325 | 0.0 | 1.0 | 0.07 | 0.97 | 0.02 | 94 | 1008.0 |
| 20260506042012 | 48 | 325 | 0.0 | 3.0 | 0.07 | 0.97 | 0.02 | 94 | 1008.1 |
| 20260506041527 | 48 | 325 | 0.0 | 3.0 | 0.07 | 0.96 | 0.01 | 94 | 1008.2 |
| 20260506041026 | 48 | 335 | 0.0 | 1.0 | 0.07 | 0.96 | 0.01 | 94 | 1008.2 |
| 20260506040529 | 48 | 334 | 0.0 | 0.0 | 0.06 | 0.95 | 0.00 | 94 | 1008.2 |
| 20260506040038 | 49 | 334 | 0.0 | 1.0 | 0.07 | 0.95 | 0.95 | 94 | 1008.2 |
| 20260506035538 | 49 | 334 | 0.0 | 2.0 | 0.06 | 0.93 | 0.93 | 94 | 1008.4 |
| 20260506035047 | 49 | 335 | 0.0 | 2.0 | 0.06 | 0.93 | 0.93 | 94 | 1008.3 |
| 20260506034549 | 49 | 334 | 0.0 | 0.0 | 0.05 | 0.92 | 0.92 | 94 | 1008.1 |
| 20260506034100 | 49 | 335 | 0.0 | 0.0 | 0.04 | 0.91 | 0.91 | 94 | 1008.1 |
| 20260506033504 | 49 | 335 | 0.0 | 2.0 | 0.04 | 0.91 | 0.91 | 94 | 1008.1 |
| 20260506033028 | 49 | 334 | 0.0 | 2.0 | 0.04 | 0.90 | 0.90 | 94 | 1008.1 |
| 20260506032531 | 49 | 335 | 0.0 | 1.0 | 0.05 | 0.90 | 0.90 | 94 | 1008.0 |
| 20260506032034 | 49 | 334 | 0.0 | 1.0 | 0.05 | 0.90 | 0.90 | 94 | 1007.8 |
| 20260506031546 | 49 | 335 | 0.0 | 4.0 | 0.04 | 0.89 | 0.89 | 94 | 1007.8 |
| 20260506031034 | 49 | 334 | 1.0 | 4.0 | 0.06 | 0.89 | 0.89 | 94 | 1007.8 |
| 20260506030540 | 49 | 331 | 0.0 | 4.0 | 0.06 | 0.89 | 0.89 | 94 | 1007.8 |
| 20260506030044 | 49 | 5 | 0.0 | 2.0 | 0.06 | 0.88 | 0.88 | 94 | 1007.6 |
| 20260506025553 | 49 | 93 | 0.0 | 2.0 | 0.05 | 0.87 | 0.87 | 94 | 1007.6 |
| 20260506025100 | 49 | 101 | 0.0 | 2.0 | 0.06 | 0.87 | 0.87 | 94 | 1007.7 |
| 20260506024513 | 49 | 103 | 0.0 | 2.0 | 0.07 | 0.87 | 0.87 | 94 | 1007.7 |
| 20260506024057 | 49 | 132 | 0.0 | 0.0 | 0.08 | 0.87 | 0.87 | 94 | 1007.7 |
| 20260506023600 | 48 | 132 | 0.0 | 2.0 | 0.09 | 0.87 | 0.87 | 94 | 1007.8 |
| 20260506023505 | 48 | 132 | 0.0 | 2.0 | 0.09 | 0.87 | 0.87 | 94 | 1007.8 |
| 20260506023021 | 48 | 132 | 0.0 | 2.0 | 0.09 | 0.86 | 0.86 | 94 | 1007.7 |
| 20260506022532 | 48 | 132 | 0.0 | 1.0 | 0.08 | 0.85 | 0.85 | 94 | 1007.9 |
| 20260506022040 | 48 | 132 | 0.0 | 4.0 | 0.10 | 0.85 | 0.85 | 94 | 1008.0 |
| 20260506021551 | 48 | 132 | 0.0 | 4.0 | 0.11 | 0.85 | 0.85 | 94 | 1008.0 |
| 20260506021052 | 48 | 123 | 0.0 | 2.0 | 0.11 | 0.83 | 0.84 | 94 | 1008.1 |
| 20260506020556 | 48 | 123 | 0.0 | 3.0 | 0.12 | 0.83 | 0.83 | 94 | 1008.3 |
| 20260506020046 | 48 | 123 | 0.0 | 3.0 | 0.11 | 0.83 | 0.82 | 94 | 1008.4 |
| 20260506015534 | 48 | 123 | 1.0 | 3.0 | 0.12 | 0.83 | 0.82 | 94 | 1008.2 |
| 20260506015043 | 48 | 216 | 1.0 | 3.0 | 0.11 | 0.82 | 0.81 | 94 | 1008.2 |
| 20260506014555 | 48 | 298 | 0.0 | 1.0 | 0.11 | 0.81 | 0.80 | 94 | 1008.5 |
| 20260506014036 | 48 | 298 | 0.0 | 1.0 | 0.11 | 0.80 | 0.79 | 94 | 1008.3 |
| 20260506013540 | 48 | 298 | 0.0 | 1.0 | 0.11 | 0.79 | 0.78 | 94 | 1008.2 |
| 20260506013048 | 48 | 298 | 0.0 | 1.0 | 0.10 | 0.78 | 0.77 | 94 | 1008.4 |
| 20260506012558 | 48 | 298 | 0.0 | 1.0 | 0.11 | 0.78 | 0.77 | 93 | 1008.8 |
| 20260506012044 | 48 | 298 | 0.0 | 1.0 | 0.12 | 0.76 | 0.75 | 93 | 1008.8 |
| 20260506011552 | 48 | 298 | 0.0 | 1.0 | 0.12 | 0.74 | 0.73 | 93 | 1008.7 |
| 20260506011100 | 48 | 298 | 0.0 | 1.0 | 0.11 | 0.73 | 0.73 | 94 | 1008.3 |
| 20260506010513 | 49 | 298 | 0.0 | 1.0 | 0.12 | 0.72 | 0.71 | 94 | 1008.3 |
| 20260506010024 | 49 | 298 | 0.0 | 2.0 | 0.14 | 0.74 | 0.71 | 94 | 1008.1 |
| 20260506005512 | 49 | 298 | 0.0 | 1.0 | 0.15 | 0.73 | 0.70 | 94 | 1008.5 |
| 20260506005056 | 49 | 298 | 0.0 | 1.0 | 0.16 | 0.73 | 0.70 | 94 | 1008.1 |
| 20260506004558 | 48 | 298 | 0.0 | 1.0 | 0.16 | 0.72 | 0.69 | 94 | 1008.1 |
| 20260506004058 | 49 | 298 | 0.0 | 1.0 | 0.15 | 0.71 | 0.68 | 93 | 1008.5 |
| 20260506003510 | 48 | 298 | 0.0 | 1.0 | 0.15 | 0.70 | 0.67 | 93 | 1008.9 |
| 20260506003025 | 48 | 298 | 0.0 | 1.0 | 0.17 | 0.70 | 0.67 | 93 | 1008.4 |
| 20260506002538 | 48 | 298 | 0.0 | 1.0 | 0.16 | 0.68 | 0.65 | 93 | 1008.6 |
| 20260506002038 | 48 | 298 | 0.0 | 1.0 | 0.15 | 0.66 | 0.63 | 93 | 1008.7 |
| 20260506001520 | 48 | 298 | 0.0 | 0.0 | 0.14 | 0.64 | 0.61 | 93 | 1008.7 |
| 20260506001036 | 48 | 298 | 0.0 | 0.0 | 0.14 | 0.63 | 0.60 | 93 | 1008.5 |
| 20260506000546 | 48 | 298 | 0.0 | 0.0 | 0.16 | 0.62 | 0.59 | 93 | 1008.3 |
| 20260506000055 | 48 | 298 | 0.0 | 0.0 | 0.15 | 0.60 | 0.56 | 93 | 1008.3 |
| 20260505235558 | 48 | 298 | 0.0 | 0.0 | 0.14 | 0.57 | 0.55 | 93 | 1008.3 |
| 20260505235500 | 48 | 298 | 0.0 | 1.0 | 0.15 | 0.57 | 0.55 | 93 | 1008.2 |
| 20260505235104 | 49 | 298 | 0.0 | 4.0 | 0.15 | 0.56 | 0.54 | 93 | 1008.2 |
| 20260505234515 | 49 | 298 | 0.0 | 4.0 | 0.15 | 0.56 | 0.53 | 93 | 1008.1 |
| 20260505234025 | 49 | 252 | 1.0 | 2.0 | 0.16 | 0.56 | 0.53 | 93 | 1007.9 |
| 20260505233508 | 49 | 252 | 0.0 | 4.0 | 0.15 | 0.54 | 0.51 | 92 | 1008.0 |
| 20260505233002 | 49 | 252 | 2.0 | 4.0 | 0.15 | 0.53 | 0.50 | 92 | 1008.2 |
| 20260505232512 | 50 | 274 | 0.0 | 3.0 | 0.14 | 0.51 | 0.49 | 92 | 1007.9 |
| 20260505232025 | 50 | 274 | 0.0 | 3.0 | 0.15 | 0.51 | 0.48 | 92 | 1007.9 |
| 20260505231528 | 50 | 273 | 0.0 | 4.0 | 0.14 | 0.50 | 0.47 | 92 | 1007.9 |
| 20260505231021 | 50 | 273 | 1.0 | 4.0 | 0.14 | 0.49 | 0.46 | 92 | 1008.0 |
| 20260505230521 | 51 | 250 | 0.0 | 5.0 | 0.13 | 0.46 | 0.43 | 92 | 1008.3 |
| 20260505230036 | 51 | 249 | 0.0 | 11.0 | 0.13 | 0.45 | 0.42 | 92 | 1007.8 |
| 20260505225538 | 51 | 246 | 3.0 | 11.0 | 0.14 | 0.44 | 0.41 | 92 | 1008.0 |
| 20260505225041 | 51 | 253 | 2.0 | 7.0 | 0.13 | 0.42 | 0.39 | 92 | 1008.0 |
| 20260505224548 | 52 | 244 | 3.0 | 7.0 | 0.12 | 0.41 | 0.38 | 92 | 1007.9 |
| 20260505224049 | 51 | 242 | 1.0 | 4.0 | 0.12 | 0.40 | 0.37 | 93 | 1007.8 |
| 20260505223557 | 51 | 244 | 1.0 | 4.0 | 0.12 | 0.39 | 0.36 | 92 | 1007.7 |
| 20260505223007 | 51 | 246 | 2.0 | 5.0 | 0.13 | 0.38 | 0.35 | 92 | 1007.6 |
| 20260505222550 | 51 | 251 | 2.0 | 5.0 | 0.15 | 0.37 | 0.35 | 92 | 1007.5 |
| 20260505222053 | 51 | 233 | 3.0 | 5.0 | 0.16 | 0.36 | 0.33 | 92 | 1007.6 |
| 20260505221558 | 51 | 257 | 2.0 | 6.0 | 0.18 | 0.36 | 0.33 | 92 | 1007.8 |
| 20260505221006 | 51 | 209 | 1.0 | 9.0 | 0.19 | 0.35 | 0.32 | 92 | 1007.9 |
| 20260505220552 | 52 | 236 | 1.0 | 8.0 | 0.18 | 0.33 | 0.30 | 92 | 1008.0 |
| 20260505220101 | 52 | 211 | 1.0 | 10.0 | 0.19 | 0.32 | 0.28 | 92 | 1007.9 |
| 20260505215546 | 52 | 235 | 3.0 | 10.0 | 0.18 | 0.30 | 0.27 | 91 | 1007.8 |
| 20260505215054 | 52 | 242 | 3.0 | 9.0 | 0.18 | 0.28 | 0.27 | 91 | 1007.8 |
| 20260505214606 | 52 | 230 | 4.0 | 9.0 | 0.19 | 0.28 | 0.26 | 91 | 1007.6 |
| 20260505214004 | 52 | 234 | 3.0 | 11.0 | 0.18 | 0.28 | 0.25 | 91 | 1007.6 |
| 20260505213512 | 52 | 246 | 4.0 | 11.0 | 0.17 | 0.26 | 0.23 | 91 | 1007.7 |
| 20260505213101 | 53 | 248 | 5.0 | 12.0 | 0.17 | 0.25 | 0.23 | 90 | 1007.7 |
| 20260505212506 | 53 | 258 | 6.0 | 16.0 | 0.14 | 0.22 | 0.19 | 90 | 1007.7 |
| 20260505212002 | 54 | 228 | 7.0 | 16.0 | 0.12 | 0.20 | 0.17 | 90 | 1007.7 |
| 20260505211557 | 54 | 225 | 6.0 | 14.0 | 0.10 | 0.18 | 0.15 | 90 | 1007.4 |
| 20260505211056 | 54 | 244 | 6.0 | 14.0 | 0.08 | 0.16 | 0.13 | 89 | 1007.3 |
| 20260505210559 | 54 | 238 | 6.0 | 14.0 | 0.07 | 0.15 | 0.12 | 89 | 1007.3 |
| 20260505210502 | 54 | 211 | 6.0 | 14.0 | 0.06 | 0.14 | 0.12 | 89 | 1007.3 |
| 20260505210035 | 55 | 261 | 5.0 | 12.0 | 0.05 | 0.13 | 0.10 | 88 | 1007.3 |
| 20260505205542 | 55 | 254 | 3.0 | 10.0 | 0.04 | 0.12 | 0.09 | 88 | 1007.2 |
| 20260505205044 | 55 | 253 | 3.0 | 8.0 | 0.04 | 0.12 | 0.09 | 87 | 1007.0 |
| 20260505204532 | 55 | 256 | 2.0 | 14.0 | 0.02 | 0.10 | 0.07 | 86 | 1007.0 |
| 20260505204035 | 55 | 253 | 4.0 | 11.0 | 0.02 | 0.10 | 0.07 | 86 | 1007.0 |
| 20260505203544 | 56 | 249 | 5.0 | 11.0 | 0.01 | 0.09 | 0.06 | 84 | 1007.0 |
| 20260505203051 | 56 | 238 | 5.0 | 11.0 | 0.00 | 0.08 | 0.05 | 84 | 1006.8 |
| 20260505202556 | 56 | 238 | 4.0 | 14.0 | 0.00 | 0.08 | 0.05 | 82 | 1006.7 |
| 20260505202038 | 57 | 281 | 5.0 | 14.0 | 0.00 | 0.08 | 0.05 | 81 | 1006.7 |
| 20260505201543 | 57 | 276 | 5.0 | 10.0 | 0.00 | 0.08 | 0.05 | 80 | 1006.6 |
| 20260505201022 | 57 | 225 | 4.0 | 10.0 | 0.00 | 0.08 | 0.05 | 80 | 1006.5 |
| 20260505200530 | 57 | 284 | 5.0 | 11.0 | 0.00 | 0.08 | 0.05 | 81 | 1006.4 |
| 20260505200042 | 57 | 275 | 3.0 | 9.0 | 0.00 | 0.08 | 0.05 | 81 | 1006.4 |
| 20260505195529 | 57 | 248 | 3.0 | 14.0 | 0.00 | 0.08 | 0.05 | 80 | 1006.5 |
| 20260505195014 | 57 | 157 | 6.0 | 14.0 | 0.00 | 0.08 | 0.05 | 80 | 1006.6 |
| 20260505194555 | 57 | 234 | 5.0 | 11.0 | 0.00 | 0.08 | 0.05 | 80 | 1006.7 |
| 20260505194102 | 58 | 246 | 5.0 | 13.0 | 0.00 | 0.08 | 0.05 | 80 | 1006.7 |
| 20260505193509 | 58 | 231 | 4.0 | 15.0 | 0.00 | 0.08 | 0.05 | 80 | 1006.8 |
| 20260505193041 | 58 | 220 | 7.0 | 15.0 | 0.00 | 0.08 | 0.05 | 80 | 1006.7 |
| 20260505192527 | 58 | 242 | 6.0 | 12.0 | 0.00 | 0.08 | 0.05 | 81 | 1006.6 |
| 20260505192032 | 57 | 244 | 5.0 | 11.0 | 0.00 | 0.08 | 0.05 | 81 | 1006.4 |
| 20260505191512 | 57 | 235 | 4.0 | 9.0 | 0.00 | 0.08 | 0.05 | 81 | 1006.6 |
| 20260505191027 | 57 | 251 | 5.0 | 13.0 | 0.00 | 0.08 | 0.05 | 81 | 1006.5 |
| 20260505190533 | 57 | 269 | 4.0 | 15.0 | 0.00 | 0.08 | 0.05 | 81 | 1006.5 |
| 20260505190044 | 57 | 261 | 7.0 | 19.0 | 0.00 | 0.08 | 0.05 | 80 | 1006.6 |
| 20260505185542 | 58 | 273 | 6.0 | 18.0 | 0.00 | 0.08 | 0.05 | 80 | 1006.5 |
| 20260505185035 | 58 | 240 | 7.0 | 18.0 | 0.00 | 0.08 | 0.05 | 80 | 1006.4 |
| 20260505184559 | 58 | 213 | 5.0 | 14.0 | 0.00 | 0.08 | 0.05 | 80 | 1006.3 |
| 20260505184035 | 58 | 254 | 6.0 | 17.0 | 0.00 | 0.08 | 0.05 | 79 | 1006.5 |
| 20260505183544 | 58 | 257 | 7.0 | 17.0 | 0.00 | 0.08 | 0.05 | 78 | 1006.6 |
| 20260505183045 | 59 | 253 | 7.0 | 14.0 | 0.00 | 0.08 | 0.05 | 77 | 1006.7 |
| 20260505182513 | 59 | 233 | 7.0 | 15.0 | 0.00 | 0.08 | 0.05 | 76 | 1006.6 |
| 20260505182103 | 60 | 259 | 8.0 | 15.0 | 0.00 | 0.08 | 0.05 | 76 | 1006.6 |
| 20260505181515 | 60 | 254 | 7.0 | 17.0 | 0.00 | 0.08 | 0.05 | 76 | 1006.3 |
| 20260505181016 | 60 | 251 | 9.0 | 17.0 | 0.00 | 0.08 | 0.05 | 74 | 1006.3 |
| 20260505180519 | 60 | 262 | 11.0 | 20.0 | 0.00 | 0.08 | 0.05 | 73 | 1006.3 |
| 20260505180034 | 61 | 301 | 11.0 | 24.0 | 0.00 | 0.08 | 0.05 | 73 | 1006.1 |
| 20260505175508 | 61 | 217 | 11.0 | 24.0 | 0.00 | 0.08 | 0.05 | 73 | 1006.1 |
| 20260505175013 | 61 | 256 | 8.0 | 20.0 | 0.00 | 0.08 | 0.05 | 73 | 1006.1 |
| 20260505174528 | 60 | 258 | 8.0 | 16.0 | 0.00 | 0.08 | 0.05 | 75 | 1005.9 |
| 20260505174016 | 59 | 259 | 7.0 | 14.0 | 0.00 | 0.08 | 0.05 | 76 | 1005.7 |
| 20260505173519 | 59 | 247 | 3.0 | 13.0 | 0.00 | 0.08 | 0.05 | 77 | 1005.6 |
| 20260505173003 | 58 | 234 | 5.0 | 13.0 | 0.00 | 0.08 | 0.05 | 76 | 1005.7 |
| 20260505172519 | 58 | 247 | 5.0 | 11.0 | 0.00 | 0.08 | 0.05 | 77 | 1005.7 |
| 20260505172029 | 57 | 224 | 4.0 | 10.0 | 0.00 | 0.08 | 0.05 | 77 | 1005.8 |
| 20260505171520 | 57 | 211 | 6.0 | 10.0 | 0.00 | 0.08 | 0.05 | 76 | 1005.8 |
| 20260505171013 | 57 | 234 | 4.0 | 15.0 | 0.00 | 0.08 | 0.05 | 76 | 1005.8 |
| 20260505170516 | 57 | 254 | 7.0 | 15.0 | 0.00 | 0.08 | 0.05 | 75 | 1005.7 |
| 20260505170016 | 58 | 270 | 5.0 | 14.0 | 0.00 | 0.08 | 0.05 | 75 | 1005.8 |
| 20260505165529 | 58 | 259 | 7.0 | 16.0 | 0.00 | 0.08 | 0.05 | 74 | 1005.6 |
| 20260505165035 | 59 | 281 | 10.0 | 16.0 | 0.00 | 0.08 | 0.05 | 72 | 1005.6 |
| 20260505164541 | 60 | 242 | 7.0 | 16.0 | 0.00 | 0.08 | 0.05 | 71 | 1005.6 |
| 20260505164032 | 62 | 271 | 8.0 | 19.0 | 0.00 | 0.08 | 0.05 | 67 | 1005.2 |
| 20260505163536 | 64 | 263 | 10.0 | 19.0 | 0.00 | 0.08 | 0.05 | 66 | 1005.0 |
| 20260505163039 | 64 | 250 | 7.0 | 15.0 | 0.00 | 0.08 | 0.05 | 67 | 1004.8 |
| 20260505162547 | 64 | 250 | 7.0 | 13.0 | 0.00 | 0.08 | 0.05 | 68 | 1004.7 |
| 20260505162051 | 64 | 233 | 6.0 | 13.0 | 0.00 | 0.08 | 0.05 | 68 | 1004.5 |
| 20260505161559 | 63 | 261 | 4.0 | 9.0 | 0.00 | 0.08 | 0.05 | 70 | 1004.1 |
| 20260505161502 | 63 | 267 | 3.0 | 9.0 | 0.00 | 0.08 | 0.05 | 71 | 1004.1 |
| 20260505161049 | 62 | 252 | 1.0 | 11.0 | 0.00 | 0.08 | 0.05 | 74 | 1004.3 |
| 20260505160556 | 60 | 220 | 4.0 | 11.0 | 0.00 | 0.08 | 0.05 | 74 | 1004.4 |
| 20260505153038 | 65 | 210 | 7.0 | 21.0 | 0.00 | 0.08 | 0.05 | 63 | 1004.8 |
| 20260505152541 | 66 | 248 | 6.0 | 20.0 | 0.00 | 0.08 | 0.05 | 63 | 1004.8 |
| 20260505152030 | 65 | 206 | 6.0 | 20.0 | 0.00 | 0.08 | 0.05 | 63 | 1004.7 |
| 20260505151507 | 65 | 277 | 6.0 | 17.0 | 0.00 | 0.08 | 0.05 | 63 | 1004.7 |
| 20260505151019 | 66 | 245 | 10.0 | 27.0 | 0.00 | 0.08 | 0.05 | 63 | 1004.6 |
| 20260505150527 | 66 | 238 | 10.0 | 27.0 | 0.00 | 0.08 | 0.05 | 62 | 1004.5 |
| 20260505140534 | 66 | 155 | 7.0 | 18.0 | 0.00 | 0.08 | 0.05 | 60 | 1003.4 |
| 20260505125025 | 66 | 183 | 5.0 | 20.0 | 0.00 | 0.08 | 0.05 | 61 | 1003.0 |
| 20260505124536 | 66 | 246 | 4.0 | 15.0 | 0.00 | 0.08 | 0.05 | 62 | 1002.8 |
| 20260505124039 | 66 | 187 | 4.0 | 16.0 | 0.00 | 0.08 | 0.05 | 62 | 1002.7 |
| 20260505123542 | 66 | 210 | 6.0 | 19.0 | 0.00 | 0.08 | 0.05 | 62 | 1002.8 |
| 20260505123106 | 66 | 190 | 7.0 | 19.0 | 0.00 | 0.08 | 0.05 | 62 | 1002.8 |
| 20260505122552 | 66 | 212 | 5.0 | 18.0 | 0.00 | 0.08 | 0.05 | 62 | 1002.7 |
| 20260505122039 | 66 | 212 | 4.0 | 18.0 | 0.00 | 0.08 | 0.05 | 63 | 1002.7 |
| 20260505121524 | 66 | 214 | 5.0 | 18.0 | 0.00 | 0.08 | 0.05 | 62 | 1002.6 |
| 20260505121027 | 66 | 244 | 5.0 | 13.0 | 0.00 | 0.08 | 0.05 | 63 | 1002.6 |
| 20260505120535 | 66 | 243 | 6.0 | 14.0 | 0.00 | 0.08 | 0.05 | 63 | 1002.6 |
| 20260505120048 | 66 | 198 | 4.0 | 18.0 | 0.00 | 0.08 | 0.05 | 63 | 1002.6 |
| 20260505115547 | 66 | 199 | 4.0 | 18.0 | 0.00 | 0.08 | 0.05 | 63 | 1002.6 |
| 20260505115049 | 66 | 289 | 5.0 | 19.0 | 0.00 | 0.08 | 0.05 | 62 | 1002.5 |
| 20260505114604 | 66 | 244 | 4.0 | 18.0 | 0.00 | 0.08 | 0.05 | 63 | 1002.5 |
| 20260505114502 | 66 | 259 | 5.0 | 24.0 | 0.00 | 0.08 | 0.05 | 63 | 1002.4 |
| 20260505114053 | 66 | 217 | 6.0 | 24.0 | 0.00 | 0.08 | 0.05 | 62 | 1002.3 |
| 20260505113505 | 65 | 214 | 7.0 | 17.0 | 0.00 | 0.08 | 0.05 | 62 | 1002.2 |
| 20260505113051 | 65 | 207 | 5.0 | 17.0 | 0.00 | 0.08 | 0.05 | 63 | 1002.1 |
| 20260505112550 | 65 | 189 | 8.0 | 17.0 | 0.00 | 0.08 | 0.05 | 63 | 1002.0 |
| 20260505112055 | 65 | 174 | 6.0 | 21.0 | 0.00 | 0.08 | 0.05 | 63 | 1001.9 |
| 20260505111513 | 65 | 251 | 4.0 | 27.0 | 0.00 | 0.08 | 0.05 | 63 | 1002.0 |
| 20260505111015 | 65 | 274 | 7.0 | 27.0 | 0.00 | 0.08 | 0.05 | 62 | 1001.8 |
| 20260505110522 | 65 | 188 | 7.0 | 23.0 | 0.00 | 0.08 | 0.05 | 63 | 1001.7 |